Time,TemperatureF,DewpointF,PressureIn,WindDirection,WindDirectionDegrees,WindSpeedMPH,WindSpeedGustMPH,Humidity,HourlyPrecipIn,Conditions,Clouds,dailyrainin,SoftwareType,DateUTC
2013-09-11 00:00:00,74.5,73.3,30.02,SE,135,2.0,3.5,96,0.00,RA,,0.00,WeatherDisplay:10.37,2013-09-11 04:00:00,
2013-09-11 00:01:00,74.5,73.3,30.02,SE,135,2.0,3.5,96,0.00,RA,,0.00,WeatherDisplay:10.37,2013-09-11 04:01:00,
2013-09-11 00:03:00,74.5,73.3,30.02,South,175,3.2,6.9,96,0.00,RA,,0.00,WeatherDisplay:10.37,2013-09-11 04:03:00,
2013-09-11 00:08:00,74.5,73.3,30.02,SE,135,0.7,4.6,96,0.00,RA,,0.00,WeatherDisplay:10.37,2013-09-11 04:08:00,
2013-09-11 00:13:00,74.4,73.2,30.02,South,175,1.8,5.8,96,0.00,FEW,,0.00,WeatherDisplay:10.37,2013-09-11 04:13:00,
2013-09-11 00:18:00,74.4,73.2,30.02,SE,140,1.4,2.3,96,0.00,FEW,,0.00,WeatherDisplay:10.37,2013-09-11 04:18:00,
2013-09-11 00:23:00,74.3,73.1,30.02,SSE,151,1.9,5.8,96,0.00,FEW,,0.00,WeatherDisplay:10.37,2013-09-11 04:23:00,
2013-09-11 00:28:00,74.3,73.1,30.02,South,180,3.8,4.6,96,0.00,FEW,,0.00,WeatherDisplay:10.37,2013-09-11 04:28:00,
2013-09-11 00:33:00,74.2,73.0,30.02,SE,128,3.8,9.2,96,0.00,FEW,,0.00,WeatherDisplay:10.37,2013-09-11 04:33:00,
2013-09-11 00:38:00,74.3,73.1,30.02,SSE,148,2.1,4.0,96,0.00,FEW,,0.00,WeatherDisplay:10.37,2013-09-11 04:38:00,
2013-09-11 00:43:00,74.3,73.1,30.02,SE,142,2.6,6.9,96,0.00,FEW,,0.00,WeatherDisplay:10.37,2013-09-11 04:43:00,
2013-09-11 00:48:00,74.3,73.1,30.02,SSE,157,1.0,3.5,96,0.00,FEW,,0.00,WeatherDisplay:10.37,2013-09-11 04:48:00,
2013-09-11 00:53:00,74.3,73.1,30.02,SSE,154,1.6,5.8,96,0.00,FEW,,0.00,WeatherDisplay:10.37,2013-09-11 04:53:00,
2013-09-11 00:58:00,74.3,73.1,30.02,SSW,192,0.8,3.5,96,0.00,FEW,,0.00,WeatherDisplay:10.37,2013-09-11 04:58:00,
2013-09-11 01:03:00,74.2,73.0,30.02,SE,130,1.2,3.5,96,0.00,FEW,,0.00,WeatherDisplay:10.37,2013-09-11 05:03:00,
2013-09-11 01:08:00,74.1,72.9,30.02,SE,126,2.3,8.1,96,0.00,FEW,,0.00,WeatherDisplay:10.37,2013-09-11 05:08:00,
2013-09-11 01:13:00,74.2,73.0,30.02,South,191,1.2,4.6,96,0.00,CLR,,0.00,WeatherDisplay:10.37,2013-09-11 05:13:00,
2013-09-11 01:18:00,74.1,72.9,30.02,ESE,103,2.1,6.9,96,0.00,CLR,,0.00,WeatherDisplay:10.37,2013-09-11 05:18:00,
2013-09-11 01:23:00,74.1,72.9,30.02,SSE,151,3.1,4.0,96,0.00,CLR,,0.00,WeatherDisplay:10.37,2013-09-11 05:23:00,
2013-09-11 01:28:00,74.1,72.9,30.02,SSE,148,1.9,5.8,96,0.00,CLR,,0.00,WeatherDisplay:10.37,2013-09-11 05:28:00,
2013-09-11 01:33:00,74.0,72.8,30.02,SE,130,4.3,10.4,96,0.00,CLR,,0.00,WeatherDisplay:10.37,2013-09-11 05:33:00,
2013-09-11 01:38:00,74.1,72.9,30.02,SE,139,3.1,5.8,96,0.00,CLR,,0.00,WeatherDisplay:10.37,2013-09-11 05:38:00,
2013-09-11 01:43:00,74.1,72.9,30.02,South,171,4.6,9.2,96,0.00,CLR,,0.00,WeatherDisplay:10.37,2013-09-11 05:43:00,
2013-09-11 01:48:00,74.1,72.9,30.02,SSE,149,1.4,4.6,96,0.00,CLR,,0.00,WeatherDisplay:10.37,2013-09-11 05:48:00,
2013-09-11 01:53:00,74.0,72.8,30.02,SSE,165,0.5,3.5,96,0.00,CLR,,0.00,WeatherDisplay:10.37,2013-09-11 05:53:00,
2013-09-11 01:58:00,74.0,72.8,30.02,SE,134,3.5,6.9,96,0.00,CLR,,0.00,WeatherDisplay:10.37,2013-09-11 05:58:00,
2013-09-11 02:03:00,74.0,73.1,30.02,SE,129,4.0,10.4,97,0.00,CLR,,0.00,WeatherDisplay:10.37,2013-09-11 06:03:00,
2013-09-11 02:08:00,73.9,73.0,30.02,South,190,3.7,9.2,97,0.00,CLR,,0.00,WeatherDisplay:10.37,2013-09-11 06:08:00,
2013-09-11 02:13:00,73.9,73.0,30.02,SSE,156,1.5,5.8,97,0.00,CLR,,0.00,WeatherDisplay:10.37,2013-09-11 06:13:00,
2013-09-11 02:18:00,73.9,73.0,30.02,South,171,0.2,4.0,97,0.00,CLR,,0.00,WeatherDisplay:10.37,2013-09-11 06:18:00,
2013-09-11 02:23:00,73.9,73.0,30.02,South,169,0.2,4.0,97,0.00,CLR,,0.00,WeatherDisplay:10.37,2013-09-11 06:23:00,
2013-09-11 02:28:00,73.9,73.0,30.02,ESE,106,3.1,11.5,97,0.00,CLR,,0.00,WeatherDisplay:10.37,2013-09-11 06:28:00,
2013-09-11 02:33:00,73.8,72.9,30.02,SSE,166,2.5,4.6,97,0.00,CLR,,0.00,WeatherDisplay:10.37,2013-09-11 06:33:00,
2013-09-11 02:38:00,73.8,72.9,30.02,SSW,195,2.3,4.6,97,0.00,CLR,,0.00,WeatherDisplay:10.37,2013-09-11 06:38:00,
2013-09-11 02:43:00,73.8,72.9,30.02,SSW,202,2.3,3.0,97,0.00,CLR,,0.00,WeatherDisplay:10.37,2013-09-11 06:43:00,
2013-09-11 02:48:00,73.8,72.9,30.02,SSE,149,1.7,9.0,97,0.00,CLR,,0.00,WeatherDisplay:10.37,2013-09-11 06:48:00,
2013-09-11 02:53:00,73.8,72.9,30.02,SSW,195,2.3,5.8,97,0.00,CLR,,0.00,WeatherDisplay:10.37,2013-09-11 06:53:00,
2013-09-11 02:58:00,73.8,72.9,30.01,SSE,154,1.4,3.5,97,0.00,CLR,,0.00,WeatherDisplay:10.37,2013-09-11 06:58:00,
2013-09-11 03:03:00,73.8,72.9,30.02,SE,126,2.2,4.6,97,0.00,CLR,,0.00,WeatherDisplay:10.37,2013-09-11 07:03:00,
2013-09-11 03:08:00,73.8,72.9,30.02,SSE,149,2.6,3.5,97,0.00,CLR,,0.00,WeatherDisplay:10.37,2013-09-11 07:08:00,
2013-09-11 03:13:00,73.7,72.8,30.02,SE,144,1.3,3.5,97,0.00,FEW,,0.00,WeatherDisplay:10.37,2013-09-11 07:13:00,
2013-09-11 03:18:00,73.7,72.8,30.02,SSE,154,1.1,3.5,97,0.00,FEW,,0.00,WeatherDisplay:10.37,2013-09-11 07:18:00,
2013-09-11 03:23:00,73.7,72.8,30.02,ESE,123,1.1,3.5,97,0.00,FEW,,0.00,WeatherDisplay:10.37,2013-09-11 07:23:00,
2013-09-11 03:28:00,73.7,72.8,30.02,SSE,163,1.6,3.5,97,0.00,FEW,,0.00,WeatherDisplay:10.37,2013-09-11 07:28:00,
2013-09-11 03:33:00,73.7,72.8,30.01,SSE,150,1.0,2.3,97,0.00,FEW,,0.00,WeatherDisplay:10.37,2013-09-11 07:33:00,
2013-09-11 03:38:00,73.7,72.8,30.02,SSE,167,0.0,1.2,97,0.00,FEW,,0.00,WeatherDisplay:10.37,2013-09-11 07:38:00,
2013-09-11 03:43:00,73.7,72.8,30.02,ESE,116,1.5,3.5,97,0.00,FEW,,0.00,WeatherDisplay:10.37,2013-09-11 07:43:00,
2013-09-11 03:48:00,73.7,72.8,30.02,SSE,155,0.7,3.5,97,0.00,FEW,,0.00,WeatherDisplay:10.37,2013-09-11 07:48:00,
2013-09-11 03:53:00,73.7,72.8,30.02,SE,136,0.7,3.5,97,0.00,FEW,,0.00,WeatherDisplay:10.37,2013-09-11 07:53:00,
2013-09-11 03:58:00,73.7,72.8,30.02,SSE,155,2.6,5.8,97,0.00,FEW,,0.00,WeatherDisplay:10.37,2013-09-11 07:58:00,
2013-09-11 04:03:00,73.7,72.8,30.02,SSW,198,3.6,6.9,97,0.00,FEW,,0.00,WeatherDisplay:10.37,2013-09-11 08:03:00,
2013-09-11 04:08:00,73.7,72.8,30.02,SSE,161,2.2,5.8,97,0.00,FEW,,0.00,WeatherDisplay:10.37,2013-09-11 08:08:00,
2013-09-11 04:13:00,73.7,72.8,30.02,SE,134,4.0,8.1,97,0.00,CLR,,0.00,WeatherDisplay:10.37,2013-09-11 08:13:00,
2013-09-11 04:18:00,73.7,72.8,30.02,South,184,4.8,11.5,97,0.00,CLR,,0.00,WeatherDisplay:10.37,2013-09-11 08:18:00,
2013-09-11 04:23:00,73.6,72.7,30.02,SSE,165,1.1,5.0,97,0.00,CLR,,0.00,WeatherDisplay:10.37,2013-09-11 08:23:00,
2013-09-11 04:29:00,73.6,72.7,30.02,SE,132,3.9,5.8,97,0.00,CLR,,0.00,WeatherDisplay:10.37,2013-09-11 08:29:00,
2013-09-11 04:34:00,73.6,72.7,30.02,SE,141,4.4,6.0,97,0.00,CLR,,0.00,WeatherDisplay:10.37,2013-09-11 08:34:00,
2013-09-11 04:39:00,73.6,72.7,30.02,SE,130,2.2,5.8,97,0.00,CLR,,0.00,WeatherDisplay:10.37,2013-09-11 08:39:00,
2013-09-11 04:44:00,73.6,72.7,30.02,SSE,159,1.7,5.8,97,0.00,CLR,,0.00,WeatherDisplay:10.37,2013-09-11 08:44:00,
2013-09-11 04:49:00,73.5,72.6,30.02,ESE,121,1.7,4.6,97,0.00,CLR,,0.00,WeatherDisplay:10.37,2013-09-11 08:49:00,
2013-09-11 04:54:00,73.5,72.6,30.02,SE,132,1.6,3.5,97,0.00,CLR,,0.00,WeatherDisplay:10.37,2013-09-11 08:54:00,
2013-09-11 04:59:00,73.5,72.6,30.02,SSE,165,1.7,4.6,97,0.00,CLR,,0.00,WeatherDisplay:10.37,2013-09-11 08:59:00,
2013-09-11 05:04:00,73.5,72.6,30.02,ESE,103,2.1,3.5,97,0.00,CLR,,0.00,WeatherDisplay:10.37,2013-09-11 09:04:00,
2013-09-11 05:09:00,73.5,72.6,30.02,SE,135,0.3,2.3,97,0.00,CLR,,0.00,WeatherDisplay:10.37,2013-09-11 09:09:00,
2013-09-11 05:14:00,73.5,72.6,30.02,SSE,156,2.4,4.6,97,0.00,CLR,,0.00,WeatherDisplay:10.37,2013-09-11 09:14:00,
2013-09-11 05:19:00,73.4,72.5,30.02,SE,125,1.9,1.9,97,0.00,CLR,,0.00,WeatherDisplay:10.37,2013-09-11 09:19:00,
2013-09-11 05:24:00,73.3,72.4,30.02,East,99,1.9,4.6,97,0.00,CLR,,0.00,WeatherDisplay:10.37,2013-09-11 09:24:00,
2013-09-11 05:29:00,73.3,72.4,30.02,SE,140,1.5,4.0,97,0.00,CLR,,0.00,WeatherDisplay:10.37,2013-09-11 09:29:00,
2013-09-11 05:34:00,73.3,72.4,30.02,ESE,113,0.9,3.5,97,0.00,CLR,,0.00,WeatherDisplay:10.37,2013-09-11 09:34:00,
2013-09-11 05:39:00,73.3,72.4,30.02,SSE,147,0.0,1.2,97,0.00,CLR,,0.00,WeatherDisplay:10.37,2013-09-11 09:39:00,
2013-09-11 05:44:00,73.2,72.3,30.03,ESE,111,0.1,4.0,97,0.00,CLR,,0.00,WeatherDisplay:10.37,2013-09-11 09:44:00,
2013-09-11 05:49:00,73.2,72.3,30.03,SE,143,0.1,1.2,97,0.00,CLR,,0.00,WeatherDisplay:10.37,2013-09-11 09:49:00,
2013-09-11 05:54:00,73.2,72.3,30.03,ESE,104,0.6,3.5,97,0.00,CLR,,0.00,WeatherDisplay:10.37,2013-09-11 09:54:00,
2013-09-11 05:59:00,73.2,72.3,30.03,SSE,147,0.1,1.2,97,0.00,CLR,,0.00,WeatherDisplay:10.37,2013-09-11 09:59:00,
2013-09-11 06:04:00,73.3,72.4,30.03,SSE,149,0.2,2.3,97,0.00,CLR,,0.00,WeatherDisplay:10.37,2013-09-11 10:04:00,
2013-09-11 06:09:00,73.3,72.4,30.03,SE,137,1.7,5.8,97,0.00,CLR,,0.00,WeatherDisplay:10.37,2013-09-11 10:09:00,
2013-09-11 06:14:00,73.3,72.4,30.04,SSE,154,2.3,3.5,97,0.00,CLR,,0.00,WeatherDisplay:10.37,2013-09-11 10:14:00,
2013-09-11 06:19:00,73.3,72.4,30.04,SSE,161,0.1,1.2,97,0.00,CLR,,0.00,WeatherDisplay:10.37,2013-09-11 10:19:00,
2013-09-11 06:24:00,73.3,72.4,30.04,ESE,107,0.0,0.0,97,0.00,CLR,,0.00,WeatherDisplay:10.37,2013-09-11 10:24:00,
2013-09-11 06:29:00,73.3,72.4,30.04,SE,144,0.8,4.6,97,0.00,CLR,,0.00,WeatherDisplay:10.37,2013-09-11 10:29:00,
2013-09-11 06:34:00,73.2,72.3,30.04,SE,128,1.3,3.5,97,0.00,CLR,,0.00,WeatherDisplay:10.37,2013-09-11 10:34:00,
2013-09-11 06:39:00,73.2,72.3,30.05,ESE,122,0.5,2.3,97,0.00,CLR,,0.00,WeatherDisplay:10.37,2013-09-11 10:39:00,
2013-09-11 06:44:00,73.2,72.3,30.05,East,85,0.1,3.0,97,0.00,CLR,,0.00,WeatherDisplay:10.37,2013-09-11 10:44:00,
2013-09-11 06:49:00,73.2,72.3,30.05,SSE,161,0.1,1.2,97,0.00,CLR,,0.00,WeatherDisplay:10.37,2013-09-11 10:49:00,
2013-09-11 06:54:00,73.2,72.3,30.06,SSE,152,1.7,3.5,97,0.00,CLR,,0.00,WeatherDisplay:10.37,2013-09-11 10:54:00,
2013-09-11 06:59:00,73.1,72.2,30.06,SE,139,1.8,5.0,97,0.00,CLR,,0.00,WeatherDisplay:10.37,2013-09-11 10:59:00,
2013-09-11 07:04:00,73.2,72.3,30.06,South,170,0.6,3.5,97,0.00,CLR,,0.00,WeatherDisplay:10.37,2013-09-11 11:04:00,
2013-09-11 07:09:00,73.2,72.3,30.06,SE,136,1.8,5.8,97,0.00,CLR,,0.00,WeatherDisplay:10.37,2013-09-11 11:09:00,
2013-09-11 07:14:00,73.2,72.3,30.06,SE,146,0.5,3.5,97,0.00,FEW,,0.00,WeatherDisplay:10.37,2013-09-11 11:14:00,
2013-09-11 07:19:00,73.2,72.3,30.06,SE,130,0.7,3.5,97,0.00,FEW,,0.00,WeatherDisplay:10.37,2013-09-11 11:19:00,
2013-09-11 07:24:00,73.3,72.4,30.06,ESE,106,1.7,3.5,97,0.00,FEW,,0.00,WeatherDisplay:10.37,2013-09-11 11:24:00,
2013-09-11 07:29:00,73.3,72.4,30.06,SE,124,1.2,2.3,97,0.00,FEW,,0.00,WeatherDisplay:10.37,2013-09-11 11:29:00,
2013-09-11 07:34:00,73.3,72.4,30.06,SSE,160,1.5,4.6,97,0.00,FEW,,0.00,WeatherDisplay:10.37,2013-09-11 11:34:00,
2013-09-11 07:39:00,73.4,72.5,30.06,ESE,115,0.0,3.5,97,0.00,FEW,,0.00,WeatherDisplay:10.37,2013-09-11 11:39:00,
2013-09-11 07:44:00,73.5,72.6,30.06,ESE,122,0.7,3.5,97,0.00,FEW,,0.00,WeatherDisplay:10.37,2013-09-11 11:44:00,
2013-09-11 07:49:00,73.6,72.7,30.06,SE,130,0.8,2.3,97,0.00,FEW,,0.00,WeatherDisplay:10.37,2013-09-11 11:49:00,
2013-09-11 07:54:00,73.8,73.2,30.06,SSE,168,1.4,4.6,98,0.00,FEW,,0.00,WeatherDisplay:10.37,2013-09-11 11:54:00,
2013-09-11 07:59:00,73.9,73.0,30.06,South,175,0.7,3.5,97,0.00,FEW,,0.00,WeatherDisplay:10.37,2013-09-11 11:59:00,
2013-09-11 08:04:00,74.0,73.1,30.06,ESE,119,2.5,4.6,97,0.00,FEW,,0.00,WeatherDisplay:10.37,2013-09-11 12:04:00,
2013-09-11 08:10:00,74.2,73.3,30.05,SE,129,0.1,5.8,97,0.00,FEW,,0.00,WeatherDisplay:10.37,2013-09-11 12:10:00,
2013-09-11 08:15:00,74.3,73.4,30.05,SE,137,1.9,2.3,97,0.00,CLR,,0.00,WeatherDisplay:10.37,2013-09-11 12:15:00,
2013-09-11 08:20:00,74.4,73.5,30.05,SE,127,3.5,6.9,97,0.00,CLR,,0.00,WeatherDisplay:10.37,2013-09-11 12:20:00,
2013-09-11 08:25:00,74.6,73.7,30.05,SSE,153,0.6,4.6,97,0.00,CLR,,0.00,WeatherDisplay:10.37,2013-09-11 12:25:00,
2013-09-11 08:30:00,74.9,74.0,30.05,SSE,166,1.3,6.9,97,0.00,CLR,,0.00,WeatherDisplay:10.37,2013-09-11 12:30:00,
2013-09-11 08:35:00,75.3,74.4,30.05,South,182,1.6,6.9,97,0.00,CLR,,0.00,WeatherDisplay:10.37,2013-09-11 12:35:00,
2013-09-11 08:40:00,75.7,74.5,30.05,SE,136,3.2,6.9,96,0.00,CLR,,0.00,WeatherDisplay:10.37,2013-09-11 12:40:00,
2013-09-11 08:45:00,76.1,74.6,30.05,SSE,155,1.2,4.6,95,0.00,CLR,,0.00,WeatherDisplay:10.37,2013-09-11 12:45:00,
2013-09-11 08:50:00,76.4,74.9,30.05,SE,136,0.0,2.3,95,0.00,CLR,,0.00,WeatherDisplay:10.37,2013-09-11 12:50:00,
2013-09-11 08:55:00,76.9,75.4,30.05,SE,136,0.8,0.0,95,0.00,CLR,,0.00,WeatherDisplay:10.37,2013-09-11 12:55:00,
2013-09-11 09:00:00,77.4,75.2,30.05,ENE,65,2.4,5.8,93,0.00,CLR,,0.00,WeatherDisplay:10.37,2013-09-11 13:00:00,
2013-09-11 09:05:00,77.9,75.7,30.05,ESE,107,1.5,3.5,93,0.00,CLR,,0.00,WeatherDisplay:10.37,2013-09-11 13:05:00,
2013-09-11 09:10:00,78.3,75.8,30.05,East,101,1.9,3.5,92,0.00,CLR,,0.00,WeatherDisplay:10.37,2013-09-11 13:10:00,
2013-09-11 09:15:00,78.7,76.2,30.05,SE,126,2.5,5.8,92,0.00,CLR,,0.00,WeatherDisplay:10.37,2013-09-11 13:15:00,
2013-09-11 09:20:00,79.1,76.2,30.05,East,98,1.0,4.6,91,0.00,CLR,,0.00,WeatherDisplay:10.37,2013-09-11 13:20:00,
2013-09-11 09:25:00,79.5,76.3,30.05,SE,136,1.0,3.5,90,0.00,CLR,,0.00,WeatherDisplay:10.37,2013-09-11 13:25:00,
2013-09-11 09:30:00,79.8,76.6,30.05,ESE,121,0.3,3.5,90,0.00,CLR,,0.00,WeatherDisplay:10.37,2013-09-11 13:30:00,
2013-09-11 09:35:00,80.3,77.1,30.05,SW,225,2.5,5.8,90,0.00,CLR,,0.00,WeatherDisplay:10.37,2013-09-11 13:35:00,
2013-09-11 09:40:00,80.5,76.6,30.04,SE,135,1.1,3.5,88,0.00,CLR,,0.00,WeatherDisplay:10.37,2013-09-11 13:40:00,
2013-09-11 09:45:00,80.7,76.5,30.05,South,174,0.7,3.5,87,0.00,CLR,,0.00,WeatherDisplay:10.37,2013-09-11 13:45:00,
2013-09-11 09:50:00,80.9,76.7,30.04,East,82,1.2,3.5,87,0.00,CLR,,0.00,WeatherDisplay:10.37,2013-09-11 13:50:00,
2013-09-11 09:55:00,81.3,77.4,30.04,ESE,103,0.2,2.0,88,0.00,CLR,,0.00,WeatherDisplay:10.37,2013-09-11 13:55:00,
2013-09-11 10:00:00,81.6,77.4,30.04,SSE,148,1.2,4.6,87,0.00,CLR,,0.00,WeatherDisplay:10.37,2013-09-11 14:00:00,
2013-09-11 10:05:00,82.1,78.2,30.04,SE,140,0.0,1.0,88,0.00,CLR,,0.00,WeatherDisplay:10.37,2013-09-11 14:05:00,
2013-09-11 10:10:00,82.4,77.8,30.04,ESE,107,0.2,2.3,86,0.00,CLR,,0.00,WeatherDisplay:10.37,2013-09-11 14:10:00,
2013-09-11 10:15:00,82.7,77.7,30.04,East,90,0.0,2.3,85,0.00,CLR,,0.00,WeatherDisplay:10.37,2013-09-11 14:15:00,
2013-09-11 10:20:00,83.1,78.1,30.03,South,182,0.4,3.5,85,0.00,CLR,,0.00,WeatherDisplay:10.37,2013-09-11 14:20:00,
2013-09-11 10:25:00,83.6,78.6,30.03,South,182,0.0,1.2,85,0.00,CLR,,0.00,WeatherDisplay:10.37,2013-09-11 14:25:00,
2013-09-11 10:30:00,84.0,78.6,30.03,SSE,150,0.0,0.0,84,0.00,CLR,,0.00,WeatherDisplay:10.37,2013-09-11 14:30:00,
2013-09-11 10:35:00,84.4,78.3,30.03,SE,146,1.1,3.5,82,0.00,CLR,,0.00,WeatherDisplay:10.37,2013-09-11 14:35:00,
2013-09-11 10:40:00,84.9,79.5,30.02,South,178,1.8,3.5,84,0.00,CLR,,0.00,WeatherDisplay:10.37,2013-09-11 14:40:00,
2013-09-11 10:45:00,85.0,78.5,30.02,South,175,3.2,4.6,81,0.00,CLR,,0.00,WeatherDisplay:10.37,2013-09-11 14:45:00,
2013-09-11 10:50:00,85.2,79.1,30.02,SSE,159,1.2,4.6,82,0.00,CLR,,0.00,WeatherDisplay:10.37,2013-09-11 14:50:00,
2013-09-11 10:55:00,85.2,77.9,30.02,South,189,1.1,3.5,79,0.00,CLR,,0.00,WeatherDisplay:10.37,2013-09-11 14:55:00,
2013-09-11 11:00:00,85.6,79.1,30.02,SW,227,2.9,5.8,81,0.00,CLR,,0.00,WeatherDisplay:10.37,2013-09-11 15:00:00,
2013-09-11 11:05:00,85.7,78.8,30.02,SSW,207,1.5,3.5,80,0.00,CLR,,0.00,WeatherDisplay:10.37,2013-09-11 15:05:00,
2013-09-11 11:10:00,85.9,80.1,30.02,South,185,0.0,0.0,83,0.00,CLR,,0.00,WeatherDisplay:10.37,2013-09-11 15:10:00,
2013-09-11 11:15:00,86.1,80.7,30.02,ESE,122,0.0,2.3,84,0.00,CLR,,0.00,WeatherDisplay:10.37,2013-09-11 15:15:00,
2013-09-11 11:20:00,86.3,79.0,30.02,SW,223,2.1,5.8,79,0.00,CLR,,0.00,WeatherDisplay:10.37,2013-09-11 15:20:00,
2013-09-11 11:25:00,86.4,79.5,30.02,SSW,196,1.8,9.2,80,0.00,CLR,,0.00,WeatherDisplay:10.37,2013-09-11 15:25:00,
2013-09-11 11:30:00,86.5,79.6,30.01,SSW,196,0.2,2.3,80,0.00,CLR,,0.00,WeatherDisplay:10.37,2013-09-11 15:30:00,
2013-09-11 11:35:00,86.6,79.7,30.01,SW,235,0.0,0.0,80,0.00,CLR,,0.00,WeatherDisplay:10.37,2013-09-11 15:35:00,
2013-09-11 11:40:00,86.8,79.5,30.01,SSW,199,4.6,9.2,79,0.00,CLR,,0.00,WeatherDisplay:10.37,2013-09-11 15:40:00,
2013-09-11 11:45:00,86.8,79.9,30.01,SSW,207,0.1,3.5,80,0.00,CLR,,0.00,WeatherDisplay:10.37,2013-09-11 15:45:00,
2013-09-11 11:50:00,86.9,80.0,30.01,SE,142,3.4,10.4,80,0.00,CLR,,0.00,WeatherDisplay:10.37,2013-09-11 15:50:00,
2013-09-11 11:55:00,87.0,79.3,30.01,SSW,204,3.2,9.2,78,0.00,CLR,,0.00,WeatherDisplay:10.37,2013-09-11 15:55:00,
2013-09-11 12:00:00,87.0,79.7,30.01,West,266,3.8,5.8,79,0.00,CLR,,0.00,WeatherDisplay:10.37,2013-09-11 16:00:00,
2013-09-11 12:05:00,87.1,79.4,30.01,SW,235,4.2,10.4,78,0.00,CLR,,0.00,WeatherDisplay:10.37,2013-09-11 16:05:00,
2013-09-11 12:10:00,87.0,79.3,30.01,SSW,205,1.7,5.8,78,0.00,CLR,,0.00,WeatherDisplay:10.37,2013-09-11 16:10:00,
2013-09-11 12:15:00,87.0,80.1,30.01,SSW,192,2.8,8.1,80,0.00,CLR,,0.00,WeatherDisplay:10.37,2013-09-11 16:15:00,
2013-09-11 12:20:00,87.1,79.4,30.01,SSW,202,1.4,5.8,78,0.00,CLR,,0.00,WeatherDisplay:10.37,2013-09-11 16:20:00,
2013-09-11 12:25:00,87.4,80.5,30.00,SSE,166,2.3,4.6,80,0.00,CLR,,0.00,WeatherDisplay:10.37,2013-09-11 16:25:00,
2013-09-11 12:30:00,87.7,80.0,30.00,South,174,2.9,9.2,78,0.00,CLR,,0.00,WeatherDisplay:10.37,2013-09-11 16:30:00,
2013-09-11 12:35:00,88.0,80.7,30.00,SSE,159,3.1,5.8,79,0.00,CLR,,0.00,WeatherDisplay:10.37,2013-09-11 16:35:00,
2013-09-11 12:40:00,88.1,80.0,30.00,SSE,164,2.8,6.9,77,0.00,CLR,,0.00,WeatherDisplay:10.37,2013-09-11 16:40:00,
2013-09-11 12:45:00,88.3,81.0,30.00,SW,233,1.6,5.8,79,0.00,CLR,,0.00,WeatherDisplay:10.37,2013-09-11 16:45:00,
2013-09-11 12:50:00,88.2,80.5,30.00,South,188,3.2,11.5,78,0.00,CLR,,0.00,WeatherDisplay:10.37,2013-09-11 16:50:00,
2013-09-11 12:55:00,88.3,80.2,30.00,SSW,206,2.1,5.0,77,0.00,CLR,,0.00,WeatherDisplay:10.37,2013-09-11 16:55:00,
2013-09-11 13:00:00,88.5,80.4,29.99,SSE,150,3.8,6.9,77,0.00,CLR,,0.00,WeatherDisplay:10.37,2013-09-11 17:00:00,
2013-09-11 13:05:00,88.6,80.1,29.99,SSW,211,4.0,6.9,76,0.00,CLR,,0.00,WeatherDisplay:10.37,2013-09-11 17:05:00,
2013-09-11 13:10:00,88.6,80.5,29.99,SW,233,0.1,3.5,77,0.00,CLR,,0.00,WeatherDisplay:10.37,2013-09-11 17:10:00,
2013-09-11 13:15:00,88.7,81.3,29.99,WSW,244,4.6,9.2,79,0.00,FEW,,0.00,WeatherDisplay:10.37,2013-09-11 17:15:00,
2013-09-11 13:20:00,88.8,80.3,29.99,ESE,107,3.5,10.4,76,0.00,FEW,,0.00,WeatherDisplay:10.37,2013-09-11 17:20:00,
2013-09-11 13:25:00,89.0,80.8,29.98,West,265,1.2,5.8,77,0.00,FEW,,0.00,WeatherDisplay:10.37,2013-09-11 17:25:00,
2013-09-11 13:30:00,89.2,80.2,29.98,SW,229,5.0,13.8,75,0.00,FEW,,0.00,WeatherDisplay:10.37,2013-09-11 17:30:00,
2013-09-11 13:35:00,89.3,80.7,29.98,SSW,204,1.1,4.6,76,0.00,FEW,,0.00,WeatherDisplay:10.37,2013-09-11 17:35:00,
2013-09-11 13:40:00,89.4,81.6,29.98,SW,215,2.0,7.0,78,0.00,FEW,,0.00,WeatherDisplay:10.37,2013-09-11 17:40:00,
2013-09-11 13:45:00,89.7,81.1,29.98,SW,220,2.6,4.6,76,0.00,FEW,,0.00,WeatherDisplay:10.37,2013-09-11 17:45:00,
2013-09-11 13:50:00,89.7,81.5,29.97,SSW,200,3.4,10.4,77,0.00,FEW,,0.00,WeatherDisplay:10.37,2013-09-11 17:50:00,
2013-09-11 13:55:00,89.9,81.7,29.97,South,175,1.5,10.4,77,0.00,FEW,,0.00,WeatherDisplay:10.37,2013-09-11 17:55:00,
2013-09-11 14:00:00,90.2,81.6,29.97,SSW,198,5.3,9.0,76,0.00,FEW,,0.00,WeatherDisplay:10.37,2013-09-11 18:00:00,
2013-09-11 14:05:00,90.2,80.4,29.97,South,169,3.7,5.8,73,0.00,FEW,,0.00,WeatherDisplay:10.37,2013-09-11 18:05:00,
2013-09-11 14:10:00,90.4,81.4,29.96,SW,218,2.1,3.5,75,0.00,FEW,,0.00,WeatherDisplay:10.37,2013-09-11 18:10:00,
2013-09-11 14:15:00,90.5,81.5,29.96,SSW,205,2.5,12.7,75,0.00,SCT,,0.00,WeatherDisplay:10.37,2013-09-11 18:15:00,
2013-09-11 14:20:00,90.5,81.5,29.96,SSE,158,1.2,4.6,75,0.00,SCT,,0.00,WeatherDisplay:10.37,2013-09-11 18:20:00,
2013-09-11 14:25:00,90.5,80.7,29.96,SSW,204,2.9,5.8,73,0.00,SCT,,0.00,WeatherDisplay:10.37,2013-09-11 18:25:00,
2013-09-11 14:30:00,90.6,81.6,29.96,WSW,239,3.2,9.0,75,0.00,SCT,,0.00,WeatherDisplay:10.37,2013-09-11 18:30:00,
2013-09-11 14:35:00,90.5,80.7,29.96,SSW,203,3.1,6.9,73,0.00,SCT,,0.00,WeatherDisplay:10.37,2013-09-11 18:35:00,
2013-09-11 14:40:00,90.5,80.7,29.96,SW,233,3.5,4.6,73,0.00,SCT,,0.00,WeatherDisplay:10.37,2013-09-11 18:40:00,
2013-09-11 14:45:00,90.5,80.7,29.96,SE,131,1.5,10.4,73,0.00,SCT,,0.00,WeatherDisplay:10.37,2013-09-11 18:45:00,
2013-09-11 14:50:00,90.6,81.2,29.95,SSW,196,1.2,5.8,74,0.00,SCT,,0.00,WeatherDisplay:10.37,2013-09-11 18:50:00,
2013-09-11 14:55:00,90.7,80.8,29.95,SE,130,3.3,6.9,73,0.00,SCT,,0.00,WeatherDisplay:10.37,2013-09-11 18:55:00,
2013-09-11 15:00:00,90.8,80.5,29.95,SSW,207,3.2,10.4,72,0.00,SCT,,0.00,WeatherDisplay:10.37,2013-09-11 19:00:00,
2013-09-11 15:05:00,90.9,81.9,29.95,SSW,196,3.4,4.0,75,0.00,SCT,,0.00,WeatherDisplay:10.37,2013-09-11 19:05:00,
2013-09-11 15:10:00,91.1,81.2,29.95,SSE,148,2.7,9.2,73,0.00,SCT,,0.00,WeatherDisplay:10.37,2013-09-11 19:10:00,
2013-09-11 15:15:00,91.3,82.3,29.94,South,183,1.5,6.0,75,0.00,SCT,,0.00,WeatherDisplay:10.37,2013-09-11 19:15:00,
2013-09-11 15:20:00,91.5,82.0,29.94,South,190,2.6,5.0,74,0.00,SCT,,0.00,WeatherDisplay:10.37,2013-09-11 19:20:00,
2013-09-11 15:25:00,91.5,81.6,29.94,SSW,196,3.7,10.4,73,0.00,SCT,,0.00,WeatherDisplay:10.37,2013-09-11 19:25:00,
2013-09-11 15:30:00,91.8,82.7,29.93,SSW,207,3.0,8.1,75,0.00,SCT,,0.00,WeatherDisplay:10.37,2013-09-11 19:30:00,
2013-09-11 15:35:00,91.8,81.9,29.93,South,175,0.6,10.4,73,0.00,SCT,,0.00,WeatherDisplay:10.37,2013-09-11 19:35:00,
2013-09-11 15:40:00,91.6,80.9,29.93,South,182,2.4,11.5,71,0.00,SCT,,0.00,WeatherDisplay:10.37,2013-09-11 19:40:00,
2013-09-11 15:45:00,91.5,80.8,29.93,East,88,4.0,9.2,71,0.00,SCT,,0.00,WeatherDisplay:10.37,2013-09-11 19:45:00,
2013-09-11 15:50:00,91.3,81.0,29.92,South,174,3.2,12.7,72,0.00,SCT,,0.00,WeatherDisplay:10.37,2013-09-11 19:50:00,
2013-09-11 15:55:00,91.0,80.3,29.92,SSE,165,0.8,6.9,71,0.00,SCT,,0.00,WeatherDisplay:10.37,2013-09-11 19:55:00,
2013-09-11 16:00:00,91.0,80.7,29.92,South,180,1.5,3.5,72,0.00,SCT,,0.00,WeatherDisplay:10.37,2013-09-11 20:00:00,
2013-09-11 16:05:00,91.1,82.1,29.92,SE,145,0.5,5.8,75,0.00,SCT,,0.00,WeatherDisplay:10.37,2013-09-11 20:05:00,
2013-09-11 16:10:00,91.3,81.4,29.92,SSE,165,0.4,1.2,73,0.00,SCT,,0.00,WeatherDisplay:10.37,2013-09-11 20:10:00,
2013-09-11 16:15:00,91.3,81.8,29.92,SSE,159,0.9,5.8,74,0.00,SCT,,0.00,WeatherDisplay:10.37,2013-09-11 20:15:00,
2013-09-11 16:20:00,91.2,82.2,29.92,SSW,196,3.3,10.4,75,0.00,SCT,,0.00,WeatherDisplay:10.37,2013-09-11 20:20:00,
2013-09-11 16:25:00,90.5,80.7,29.91,SSW,211,3.1,10.4,73,0.00,SCT,,0.00,WeatherDisplay:10.37,2013-09-11 20:25:00,
2013-09-11 16:31:00,90.0,81.0,29.91,SW,219,2.2,3.5,75,0.00,SCT,,0.00,WeatherDisplay:10.37,2013-09-11 20:31:00,
2013-09-11 16:36:00,89.7,81.1,29.91,South,172,2.1,6.9,76,0.00,SCT,,0.00,WeatherDisplay:10.37,2013-09-11 20:36:00,
2013-09-11 16:41:00,89.6,81.4,29.91,SSW,198,1.9,4.6,77,0.00,SCT,,0.00,WeatherDisplay:10.37,2013-09-11 20:41:00,
2013-09-11 16:46:00,89.2,80.6,29.91,South,180,2.5,4.6,76,0.00,SCT,,0.00,WeatherDisplay:10.37,2013-09-11 20:46:00,
2013-09-11 16:51:00,88.6,80.1,29.92,SSW,213,3.6,9.2,76,0.00,SCT,,0.00,WeatherDisplay:10.37,2013-09-11 20:51:00,
2013-09-11 16:56:00,87.7,79.2,29.92,SW,234,0.9,4.6,76,0.00,SCT,,0.00,WeatherDisplay:10.37,2013-09-11 20:56:00,
2013-09-11 17:01:00,87.1,79.0,29.92,SSE,159,2.7,6.9,77,0.00,SCT,,0.00,WeatherDisplay:10.37,2013-09-11 21:01:00,
2013-09-11 17:06:00,86.4,78.7,29.92,ESE,113,5.8,11.5,78,0.00,SCT,,0.00,WeatherDisplay:10.37,2013-09-11 21:06:00,
2013-09-11 17:11:00,85.8,78.5,29.92,South,190,4.6,12.7,79,0.00,BKN,,0.00,WeatherDisplay:10.37,2013-09-11 21:11:00,
2013-09-11 17:16:00,84.9,75.7,29.92,West,259,2.2,6.9,74,0.00,BKN,,0.00,WeatherDisplay:10.37,2013-09-11 21:16:00,
2013-09-11 17:21:00,84.3,75.5,29.92,SW,217,0.7,3.5,75,0.00,BKN,,0.00,WeatherDisplay:10.37,2013-09-11 21:21:00,
2013-09-11 17:26:00,84.0,74.8,29.92,ESE,123,1.8,4.6,74,0.00,BKN,,0.00,WeatherDisplay:10.37,2013-09-11 21:26:00,
2013-09-11 17:31:00,83.7,74.5,29.91,SE,134,1.0,3.5,74,0.00,BKN,,0.00,WeatherDisplay:10.37,2013-09-11 21:31:00,
2013-09-11 17:36:00,83.5,74.7,29.92,South,182,0.3,1.0,75,0.00,BKN,,0.00,WeatherDisplay:10.37,2013-09-11 21:36:00,
2013-09-11 17:41:00,83.1,74.4,29.92,South,191,1.4,4.6,75,0.00,BKN,,0.00,WeatherDisplay:10.37,2013-09-11 21:41:00,
2013-09-11 17:46:00,82.8,74.5,29.92,South,179,1.3,4.6,76,0.00,BKN,,0.00,WeatherDisplay:10.37,2013-09-11 21:46:00,
2013-09-11 17:51:00,82.7,74.8,29.92,SE,134,1.7,4.6,77,0.00,BKN,,0.00,WeatherDisplay:10.37,2013-09-11 21:51:00,
2013-09-11 17:56:00,82.8,75.2,29.92,South,174,1.3,3.5,78,0.00,BKN,,0.00,WeatherDisplay:10.37,2013-09-11 21:56:00,
2013-09-11 18:01:00,82.8,75.6,29.92,SSE,163,1.2,4.6,79,0.00,BKN,,0.00,WeatherDisplay:10.37,2013-09-11 22:01:00,
2013-09-11 18:06:00,82.8,76.0,29.92,SSW,211,2.0,5.8,80,0.00,BKN,,0.00,WeatherDisplay:10.37,2013-09-11 22:06:00,
2013-09-11 18:11:00,82.8,76.0,29.93,SE,146,3.1,10.4,80,0.00,BKN,,0.00,WeatherDisplay:10.37,2013-09-11 22:11:00,
2013-09-11 18:16:00,82.7,76.3,29.93,SW,225,3.6,6.0,81,0.00,BKN,,0.00,WeatherDisplay:10.37,2013-09-11 22:16:00,
2013-09-11 18:21:00,82.6,76.5,29.93,SW,216,2.2,6.9,82,0.00,BKN,,0.00,WeatherDisplay:10.37,2013-09-11 22:21:00,
2013-09-11 18:26:00,82.5,76.8,29.93,SW,232,2.6,8.1,83,0.00,BKN,,0.00,WeatherDisplay:10.37,2013-09-11 22:26:00,
2013-09-11 18:31:00,82.4,76.7,29.93,South,180,4.5,9.2,83,0.00,OVC,,0.00,WeatherDisplay:10.37,2013-09-11 22:31:00,
2013-09-11 18:36:00,82.2,76.9,29.93,SW,225,5.3,12.0,84,0.00,OVC,,0.00,WeatherDisplay:10.37,2013-09-11 22:36:00,
2013-09-11 18:41:00,82.2,76.9,29.93,SSW,213,11.0,17.3,84,0.00,OVC,,0.00,WeatherDisplay:10.37,2013-09-11 22:41:00,
2013-09-11 18:46:00,81.7,77.1,29.94,SW,233,9.3,11.5,86,0.00,OVC,,0.00,WeatherDisplay:10.37,2013-09-11 22:46:00,
2013-09-11 18:51:00,81.4,77.2,29.94,WSW,247,6.6,11.5,87,0.00,OVC,,0.00,WeatherDisplay:10.37,2013-09-11 22:51:00,
2013-09-11 18:56:00,81.3,77.1,29.94,West,259,6.9,13.8,87,0.00,OVC,,0.00,WeatherDisplay:10.37,2013-09-11 22:56:00,
2013-09-11 19:01:00,81.0,76.8,29.95,WSW,245,11.5,15.0,87,0.00,OVC,,0.00,WeatherDisplay:10.37,2013-09-11 23:01:00,
2013-09-11 19:06:00,81.1,75.4,29.95,WSW,248,16.8,28.0,83,0.00,OVC,,0.00,WeatherDisplay:10.37,2013-09-11 23:06:00,
2013-09-11 19:11:00,80.8,72.1,29.96,West,263,17.6,26.5,75,0.00,OVC,,0.00,WeatherDisplay:10.37,2013-09-11 23:11:00,
2013-09-11 19:16:00,80.1,71.1,29.97,West,281,14.7,19.6,74,0.00,OVC,,0.00,WeatherDisplay:10.37,2013-09-11 23:16:00,
2013-09-11 19:21:00,79.2,69.8,29.96,West,275,16.0,21.9,73,0.00,-RA,,0.00,WeatherDisplay:10.37,2013-09-11 23:21:00,
2013-09-11 19:26:00,78.7,69.7,29.97,SW,229,9.5,12.7,74,0.00,-RA,,0.00,WeatherDisplay:10.37,2013-09-11 23:26:00,
2013-09-11 19:31:00,77.8,69.2,29.98,West,275,11.6,12.7,75,0.00,OVC,,0.00,WeatherDisplay:10.37,2013-09-11 23:31:00,
2013-09-11 19:36:00,77.0,68.9,29.99,West,269,7.7,11.5,76,0.00,OVC,,0.00,WeatherDisplay:10.37,2013-09-11 23:36:00,
2013-09-11 19:41:00,76.6,68.8,29.99,WNW,284,3.7,9.2,77,0.00,OVC,,0.00,WeatherDisplay:10.37,2013-09-11 23:41:00,
2013-09-11 19:47:00,76.3,68.6,30.00,WNW,293,1.2,3.5,77,0.00,OVC,,0.00,WeatherDisplay:10.37,2013-09-11 23:47:00,
2013-09-11 19:52:00,76.0,69.7,30.01,West,277,1.5,3.5,81,0.01,RA,,0.01,WeatherDisplay:10.37,2013-09-11 23:52:00,
2013-09-11 19:57:00,75.1,69.6,30.02,West,277,0.3,3.5,83,0.02,RA,,0.02,WeatherDisplay:10.37,2013-09-11 23:57:00,
2013-09-11 20:02:00,73.9,69.1,30.01,WNW,299,7.2,12.7,85,0.02,RA,,0.02,WeatherDisplay:10.37,2013-09-12 00:02:00,
2013-09-11 20:07:00,73.1,68.3,30.02,West,273,6.1,9.2,85,0.03,RA,,0.03,WeatherDisplay:10.37,2013-09-12 00:07:00,
2013-09-11 20:12:00,72.6,68.8,30.02,West,265,2.3,3.5,88,0.04,RA,,0.04,WeatherDisplay:10.37,2013-09-12 00:12:00,
2013-09-11 20:17:00,72.1,68.3,30.02,WNW,286,3.1,4.6,88,0.05,RA,,0.05,WeatherDisplay:10.37,2013-09-12 00:17:00,
2013-09-11 20:22:00,71.8,68.7,30.02,NW,307,1.8,4.6,90,0.05,RA,,0.05,WeatherDisplay:10.37,2013-09-12 00:22:00,
2013-09-11 20:27:00,71.3,68.2,30.01,NW,308,5.0,11.5,90,0.06,RA,,0.06,WeatherDisplay:10.37,2013-09-12 00:27:00,
2013-09-11 20:32:00,70.9,68.1,30.02,WNW,285,3.9,9.2,91,0.07,-RA,,0.07,WeatherDisplay:10.37,2013-09-12 00:32:00,
2013-09-11 20:37:00,70.5,68.1,30.02,West,268,4.6,11.5,92,0.08,-RA,,0.08,WeatherDisplay:10.37,2013-09-12 00:37:00,
2013-09-11 20:42:00,70.2,67.8,30.03,West,273,2.0,3.5,92,0.09,-RA,,0.09,WeatherDisplay:10.37,2013-09-12 00:42:00,
2013-09-11 20:47:00,70.1,68.0,30.03,West,273,0.0,0.0,93,0.10,-RA,,0.10,WeatherDisplay:10.37,2013-09-12 00:47:00,
2013-09-11 20:52:00,69.8,68.0,30.03,West,273,0.6,2.3,94,0.10,-RA,,0.11,WeatherDisplay:10.37,2013-09-12 00:52:00,
2013-09-11 20:57:00,69.7,67.9,30.03,ESE,112,3.0,3.5,94,0.09,-RA,,0.11,WeatherDisplay:10.37,2013-09-12 00:57:00,
2013-09-11 21:02:00,69.6,68.1,30.03,ESE,119,1.2,2.3,95,0.10,-RA,,0.12,WeatherDisplay:10.37,2013-09-12 01:02:00,
2013-09-11 21:07:00,69.5,68.0,30.03,ESE,113,0.0,1.2,95,0.09,-RA,,0.12,WeatherDisplay:10.37,2013-09-12 01:07:00,
2013-09-11 21:12:00,69.4,67.9,30.03,East,97,2.9,4.0,95,0.09,-RA,,0.13,WeatherDisplay:10.37,2013-09-12 01:12:00,
2013-09-11 21:17:00,69.3,68.1,30.03,East,82,3.6,5.0,96,0.08,-RA,,0.13,WeatherDisplay:10.37,2013-09-12 01:17:00,
2013-09-11 21:22:00,69.3,68.1,30.03,East,81,3.6,5.0,96,0.08,-RA,,0.13,WeatherDisplay:10.37,2013-09-12 01:22:00,
2013-09-11 21:27:00,69.2,68.0,30.03,ESE,105,2.6,3.5,96,0.08,-RA,,0.14,WeatherDisplay:10.37,2013-09-12 01:27:00,
2013-09-11 21:32:00,69.2,68.3,30.02,East,91,3.7,4.6,97,0.07,-RA,,0.14,WeatherDisplay:10.37,2013-09-12 01:32:00,
2013-09-11 21:37:00,69.2,68.3,30.01,ENE,74,3.7,4.6,97,0.06,-RA,,0.14,WeatherDisplay:10.37,2013-09-12 01:37:00,
2013-09-11 21:42:00,69.1,68.2,30.00,East,80,4.1,6.9,97,0.05,-RA,,0.14,WeatherDisplay:10.37,2013-09-12 01:42:00,
2013-09-11 21:47:00,69.0,68.1,30.00,East,87,4.8,6.9,97,0.04,-RA,,0.14,WeatherDisplay:10.37,2013-09-12 01:47:00,
2013-09-11 21:52:00,69.0,68.1,29.99,East,84,4.5,6.0,97,0.03,-RA,,0.14,WeatherDisplay:10.37,2013-09-12 01:52:00,
2013-09-11 21:57:00,69.0,68.1,29.98,ENE,67,5.7,9.2,97,0.03,-RA,,0.14,WeatherDisplay:10.37,2013-09-12 01:57:00,
2013-09-11 22:02:00,69.0,68.1,29.98,ENE,73,5.4,6.9,97,0.02,-RA,,0.14,WeatherDisplay:10.37,2013-09-12 02:02:00,
2013-09-11 22:07:00,69.0,68.1,29.98,ENE,62,5.4,6.9,97,0.02,-RA,,0.14,WeatherDisplay:10.37,2013-09-12 02:07:00,
2013-09-11 22:12:00,69.0,68.1,29.98,ESE,103,3.4,4.6,97,0.01,-RA,,0.14,WeatherDisplay:10.37,2013-09-12 02:12:00,
2013-09-11 22:17:00,69.0,68.4,29.97,East,86,3.6,4.6,98,0.01,-RA,,0.14,WeatherDisplay:10.37,2013-09-12 02:17:00,
2013-09-11 22:22:00,69.0,68.4,29.96,ENE,69,3.4,5.0,98,0.01,-RA,,0.14,WeatherDisplay:10.37,2013-09-12 02:22:00,
2013-09-11 22:27:00,69.0,68.4,29.99,South,190,1.2,4.6,98,0.00,-RA,,0.14,WeatherDisplay:10.37,2013-09-12 02:27:00,
2013-09-11 22:32:00,68.8,68.2,29.98,WNW,283,3.3,4.0,98,0.00,-RA,,0.14,WeatherDisplay:10.37,2013-09-12 02:32:00,
2013-09-11 22:37:00,68.7,68.1,30.00,WSW,252,6.7,11.5,98,0.00,-RA,,0.14,WeatherDisplay:10.37,2013-09-12 02:37:00,
2013-09-11 22:42:00,68.6,68.0,29.99,SW,233,3.5,5.8,98,0.00,-RA,,0.14,WeatherDisplay:10.37,2013-09-12 02:42:00,
2013-09-11 22:47:00,68.5,67.9,30.00,SW,234,5.3,6.9,98,0.00,-RA,,0.14,WeatherDisplay:10.37,2013-09-12 02:47:00,
2013-09-11 22:52:00,68.5,67.9,30.00,WSW,238,7.5,11.5,98,0.00,-RA,,0.14,WeatherDisplay:10.37,2013-09-12 02:52:00,
2013-09-11 22:57:00,68.4,67.8,29.99,SSW,195,4.8,9.2,98,0.00,-RA,,0.14,WeatherDisplay:10.37,2013-09-12 02:57:00,
2013-09-11 23:02:00,68.4,67.8,29.99,SW,221,2.4,3.5,98,0.00,OVC,,0.14,WeatherDisplay:10.37,2013-09-12 03:02:00,
2013-09-11 23:07:00,68.3,67.7,29.99,SW,227,5.2,6.9,98,0.00,OVC,,0.14,WeatherDisplay:10.37,2013-09-12 03:07:00,
2013-09-11 23:12:00,68.2,67.6,29.98,SW,231,1.9,3.5,98,0.00,OVC,,0.14,WeatherDisplay:10.37,2013-09-12 03:12:00,
2013-09-11 23:17:00,68.2,67.6,29.98,WSW,238,3.9,9.2,98,0.00,OVC,,0.14,WeatherDisplay:10.37,2013-09-12 03:17:00,
2013-09-11 23:22:00,68.2,67.6,29.98,SW,229,3.2,5.8,98,0.00,OVC,,0.14,WeatherDisplay:10.37,2013-09-12 03:22:00,
2013-09-11 23:27:00,68.2,67.6,29.97,SW,229,0.0,0.0,98,0.00,OVC,,0.14,WeatherDisplay:10.37,2013-09-12 03:27:00,
2013-09-11 23:32:00,68.2,67.6,29.96,SW,229,0.4,3.0,98,0.00,OVC,,0.14,WeatherDisplay:10.37,2013-09-12 03:32:00,
2013-09-11 23:37:00,68.2,67.6,29.94,ENE,75,3.2,3.5,98,0.00,OVC,,0.14,WeatherDisplay:10.37,2013-09-12 03:37:00,
2013-09-11 23:42:00,68.1,67.5,29.93,ENE,77,3.2,4.6,98,0.00,OVC,,0.14,WeatherDisplay:10.37,2013-09-12 03:42:00,
2013-09-11 23:48:00,68.1,67.5,29.91,ENE,78,4.2,8.1,98,0.00,OVC,,0.14,WeatherDisplay:10.37,2013-09-12 03:48:00,
2013-09-11 23:53:00,68.0,67.7,29.91,ESE,111,2.2,6.9,99,0.00,OVC,,0.14,WeatherDisplay:10.37,2013-09-12 03:53:00,
2013-09-11 23:58:00,68.0,67.7,29.91,SE,126,1.6,3.5,99,0.00,OVC,,0.14,WeatherDisplay:10.37,2013-09-12 03:58:00,